TimeCDT,TemperatureF,Dew PointF,Humidity,Sea Level PressureIn,VisibilityMPH,Wind Direction,Wind SpeedMPH,Gust SpeedMPH,PrecipitationIn,Events,Conditions,WindDirDegrees,DateUTC
12:56 AM,72.9,72.9,100,29.94,10.0,Calm,Calm,-,N/A,,Clear,0,2013-07-11 05:56:00
1:56 AM,72.0,72.0,100,29.94,10.0,Calm,Calm,-,N/A,,Clear,0,2013-07-11 06:56:00
2:56 AM,70.9,70.9,100,29.93,10.0,SE,3.5,-,N/A,,Clear,130,2013-07-11 07:56:00
3:56 AM,72.0,72.0,100,29.94,10.0,Calm,Calm,-,N/A,,Overcast,0,2013-07-11 08:56:00
4:37 AM,71.6,71.6,100,29.95,10.0,Calm,Calm,-,N/A,,Overcast,0,2013-07-11 09:37:00
4:56 AM,72.0,72.0,100,29.94,10.0,Calm,Calm,-,N/A,,Mostly Cloudy,0,2013-07-11 09:56:00
5:56 AM,72.9,72.9,100,29.94,6.0,Calm,Calm,-,N/A,,Scattered Clouds,0,2013-07-11 10:56:00
6:56 AM,73.9,73.9,100,29.96,6.0,North,6.9,-,N/A,,Mostly Cloudy,350,2013-07-11 11:56:00
7:19 AM,73.4,73.4,100,29.98,5.0,Variable,6.9,-,N/A,,Overcast,0,2013-07-11 12:19:00
7:32 AM,73.4,73.4,100,29.98,2.5,NNE,8.1,-,N/A,,Overcast,20,2013-07-11 12:32:00
7:56 AM,72.9,72.9,100,29.97,2.0,NNE,9.2,-,N/A,,Overcast,30,2013-07-11 12:56:00
8:19 AM,73.4,73.4,100,29.99,3.0,NE,9.2,-,N/A,,Overcast,40,2013-07-11 13:19:00
8:42 AM,73.4,71.6,94,29.99,5.0,NE,6.9,-,0.00,,Mostly Cloudy,40,2013-07-11 13:42:00
8:56 AM,75.9,70.0,82,29.98,7.0,NE,11.5,-,0.00,,Mostly Cloudy,40,2013-07-11 13:56:00
9:56 AM,77.9,64.9,64,29.99,7.0,NE,9.2,18.4,N/A,,Partly Cloudy,40,2013-07-11 14:56:00
10:56 AM,79.9,61.9,54,30.00,10.0,NNE,9.2,16.1,N/A,,Partly Cloudy,20,2013-07-11 15:56:00
11:56 AM,81.0,61.9,52,30.00,10.0,NNE,10.4,-,N/A,,Clear,30,2013-07-11 16:56:00
12:56 PM,81.9,61.9,51,29.99,10.0,North,9.2,-,N/A,,Clear,350,2013-07-11 17:56:00
1:56 PM,82.9,61.9,49,29.99,10.0,North,10.4,-,N/A,,Clear,360,2013-07-11 18:56:00
2:56 PM,82.9,61.9,49,29.98,10.0,North,8.1,-,N/A,,Partly Cloudy,10,2013-07-11 19:56:00
3:56 PM,81.9,56.8,42,29.98,10.0,North,11.5,-,N/A,,Partly Cloudy,350,2013-07-11 20:56:00
4:56 PM,81.9,59.0,46,29.99,10.0,NNE,6.9,-,N/A,,Clear,20,2013-07-11 21:56:00
5:56 PM,81.0,57.9,45,29.98,10.0,North,12.7,-,N/A,,Clear,360,2013-07-11 22:56:00
6:56 PM,79.0,59.0,50,29.97,10.0,North,8.1,-,N/A,,Clear,350,2013-07-11 23:56:00
7:56 PM,77.0,59.0,54,29.97,10.0,North,6.9,-,N/A,,Clear,350,2013-07-12 00:56:00
8:56 PM,73.9,59.9,61,29.98,10.0,North,4.6,-,N/A,,Clear,10,2013-07-12 01:56:00
9:56 PM,72.0,59.9,66,30.00,10.0,Variable,4.6,-,N/A,,Clear,0,2013-07-12 02:56:00
10:56 PM,70.9,59.9,68,30.01,10.0,NNE,5.8,-,N/A,,Clear,20,2013-07-12 03:56:00
11:56 PM,70.0,59.9,70,30.02,10.0,NNE,4.6,-,N/A,,Clear,20,2013-07-12 04:56:00